Location: Newark
(49.4900°N, 20.6656°E)
Time: 16:51:06
(UTC+00:00)

STARLINK-1656 - Pass Details

Date: 24 September 2020
Orbit: 548 x 551 km, 53.0° (Epoch: 30 October)

Event Time Altitude Azimuth Distance (km) Brightness Sun altitude
Exits shadow 00:18:02 11° 67° (ENE) 1,823 6.8 -35.8°
Drops below altitude 10° 00:18:07 10° 67° (ENE) 1,858 6.9 -35.8°
Enters shadow 01:20:20 -59° 262° (W) 11,579 10.3 -29.0°
